TimePST,TemperatureF,Dew PointF,Humidity,Sea Level PressureIn,VisibilityMPH,Wind Direction,Wind SpeedMPH,Gust SpeedMPH,PrecipitationIn,Events,Conditions,WindDirDegrees,DateUTC
12:56 AM,26.1,14.0,60,30.19,10.0,Calm,Calm,-,N/A,,Clear,0,2012-11-13 08:56:00
1:56 AM,21.9,12.9,68,30.19,10.0,Calm,Calm,-,N/A,,Clear,0,2012-11-13 09:56:00
2:56 AM,21.9,10.9,63,30.18,10.0,Calm,Calm,-,N/A,,Clear,0,2012-11-13 10:56:00
3:56 AM,21.0,10.9,65,30.19,10.0,Calm,Calm,-,N/A,,Clear,0,2012-11-13 11:56:00
4:56 AM,19.9,10.9,68,30.18,10.0,South,4.6,-,N/A,,Clear,170,2012-11-13 12:56:00
5:56 AM,21.0,10.9,65,30.17,10.0,SE,9.2,-,N/A,,Clear,140,2012-11-13 13:56:00
6:22 AM,21.2,10.4,63,30.30,10.0,South,6.9,-,N/A,,Mostly Cloudy,180,2012-11-13 14:22:00
6:56 AM,21.9,12.0,66,30.19,10.0,Calm,Calm,-,N/A,,Mostly Cloudy,0,2012-11-13 14:56:00
7:56 AM,30.0,16.0,56,30.20,10.0,Calm,Calm,-,N/A,,Mostly Cloudy,0,2012-11-13 15:56:00
8:56 AM,37.0,16.0,42,30.20,10.0,Calm,Calm,-,N/A,,Mostly Cloudy,0,2012-11-13 16:56:00
9:56 AM,43.0,18.0,37,30.20,10.0,Calm,Calm,-,N/A,,Mostly Cloudy,0,2012-11-13 17:56:00
10:56 AM,46.9,17.1,30,30.18,10.0,SE,3.5,-,N/A,,Mostly Cloudy,140,2012-11-13 18:56:00
11:56 AM,50.0,17.1,27,30.15,10.0,Calm,Calm,-,N/A,,Overcast,0,2012-11-13 19:56:00
12:56 PM,55.0,17.1,23,30.12,10.0,Variable,3.5,-,N/A,,Overcast,0,2012-11-13 20:56:00
1:56 PM,55.9,19.0,24,30.10,10.0,Calm,Calm,-,N/A,,Overcast,0,2012-11-13 21:56:00
2:56 PM,57.9,21.9,25,30.08,10.0,ENE,5.8,-,N/A,,Overcast,70,2012-11-13 22:56:00
3:56 PM,55.9,23.0,28,30.07,10.0,NNE,8.1,-,N/A,,Overcast,30,2012-11-13 23:56:00
4:56 PM,50.0,23.0,35,30.07,10.0,ENE,6.9,-,N/A,,Overcast,60,2012-11-14 00:56:00
5:56 PM,45.0,23.0,42,30.08,10.0,NNE,4.6,-,N/A,,Mostly Cloudy,20,2012-11-14 01:56:00
6:56 PM,41.0,19.9,43,30.09,10.0,NE,3.5,-,N/A,,Mostly Cloudy,40,2012-11-14 02:56:00
7:56 PM,39.9,21.0,47,30.09,10.0,ENE,3.5,-,N/A,,Scattered Clouds,60,2012-11-14 03:56:00
8:56 PM,41.0,21.0,45,30.09,10.0,South,3.5,-,N/A,,Partly Cloudy,170,2012-11-14 04:56:00
9:56 PM,34.0,21.0,59,30.09,10.0,South,4.6,-,N/A,,Partly Cloudy,170,2012-11-14 05:56:00
10:56 PM,35.1,19.9,54,30.09,10.0,SW,3.5,-,N/A,,Clear,220,2012-11-14 06:56:00
11:56 PM,32.0,19.9,61,30.09,10.0,Calm,Calm,-,N/A,,Clear,0,2012-11-14 07:56:00